RH
93 87 91 79 65 77 74 76 87 93 96 91 90 86 85 80 71 59 50 49 55 59 63 64 71 78 81 84 74 54 42 42 46 52 63 75 86 82
78 79 86 87 67 75 79 76 83 91 89 88 87 83 87 87 80 74 65 54 53 60 67 62 58 70 80 76 77 64 57 52 49 49 60 74 88 92
67 79 87 79 82 81 82 71 79 87 84 77 78 83 98 94 86 82 78 68 63 60 65 70 76 77 79 71 67 62 64 61 59 59 62 67 83 94
83 82 71 83 87 84 84 86 86 82 79 73 73 83 88 91 93 90 87 86 85 73 66 64 66 70 77 81 78 77 72 70 66 69 69 72 81 90
69 66 60 70 71 81 86 87 83 85 83 79 72 76 78 85 98 91 93 95 93 83 70 63 66 69 77 83 85 89 85 83 76 76 78 77 77 90
60 51 55 61 71 71 70 79 83 86 86 91 89 83 76 74 81 90 91 95 96 93 84 66 68 73 77 76 77 78 86 92 88 88 89 86 85 86
47 50 49 56 59 56 66 70 70 87 92 97 97 93 92 87 74 88 93 95 95 95 90 74 71 68 71 72 75 75 76 86 94 94 94 93 91 87
37 37 40 43 45 48 51 58 65 70 81 91 90 92 97 92 91 92 95 96 98 91 92 83 80 76 76 73 72 74 74 76 84 98 94 95 95 94
37 33 33 33 35 36 40 48 52 58 80 87 88 93 92 92 93 88 94 97 94 90 92 84 85 83 80 75 71 72 74 77 77 87 97 98 97 97
34 30 31 31 32 32 32 36 42 49 63 73 82 94 89 90 95 88 85 90 92 93 89 87 86 86 82 79 72 71 71 74 87 96 98 98 98 98
31 31 33 31 32 31 30 29 37 45 56 64 75 78 82 94 94 90 97 96 84 88 92 88 84 85 85 79 78 76 72 72 90 99 98 98 99 98
35 32 32 31 31 30 30 32 29 35 48 51 59 60 74 84 86 91 89 95 88 88 88 86 84 83 87 80 77 72 73 68 85 91 95 97 98 98
43 35 34 35 31 31 33 33 33 28 32 51 58 64 66 66 71 81 87 98 96 92 86 84 85 83 85 84 83 77 77 70 74 86 86 95 98 98
49 43 37 33 32 31 31 32 33 29 31 39 44 56 67 70 71 80 87 89 96 94 89 84 86 86 89 85 89 82 78 76 73 75 82 85 98 98
41 45 40 34 30 30 31 32 31 28 28 30 36 44 55 66 77 84 93 99 99 97 99 99 91 93 89 86 87 84 84 77 75 74 78 94 98 98
34 34 38 37 34 32 32 31 30 30 30 30 31 39 46 67 71 90 92 88 91 98 99 99 97 96 89 89 89 88 82 77 74 80 90 96 98 97
29 31 38 43 41 37 35 33 34 32 30 28 30 37 40 51 69 85 98 97 98 96 96 98 99 98 96 96 88 86 84 80 78 83 89 95 97 97
32 33 35 37 39 39 39 39 39 36 34 34 34 35 38 43 59 79 91 85 94 98 98 98 98 96 92 90 86 87 85 81 84 83 86 90 94 96
34 35 38 39 41 42 41 40 39 40 38 38 36 37 38 45 54 63 82 87 98 97 98 98 99 98 98 98 93 91 79 81 87 87 83 86 91 95
38 40 42 43 46 48 48 45 43 41 40 41 41 41 43 43 54 59 68 76 87 89 90 97 97 98 98 97 98 95 87 81 84 92 91 90 91 93
41 45 50 51 51 56 58 57 53 51 50 48 47 46 45 46 48 54 59 87 98 90 95 98 98 94 98 98 96 97 93 89 85 90 93 94 95 95
47 52 55 57 59 62 67 66 61 60 59 54 53 50 49 52 55 55 56 76 96 98 98 97 97 98 97 97 96 97 97 94 91 94 95 95 95 96
53 56 59 60 64 68 71 69 70 73 71 68 63 59 58 58 55 55 61 78 83 86 91 94 96 97 97 97 95 97 96 96 94 95 97 97 96 96